logo
Search for airport 
image banner adimage banner adimage banner ad
image banner ad

OTBD - Doha Intl

Located in Doha, Qatar

ICAO - OTBD, IATA - DIA

Data provided by Airmate  

General information

Coordinates: N25°15'40" E51°33'54"
Elevation is 37 feet MSL.
 
View others Airports in Ad Dawhah Municipality

Operational data

Special qualification required
Current time UTC:
Current local time:
Weather
METAR: OTBD 240730Z 35012KT CAVOK 40/10 Q1005 NOSIG
TAF: TAF OTBD 240528Z 2406/2512 36011KT CAVOK TEMPO 2406/2417 29010KT TEMPO 2406/2420 36015G25KT
View NOTAMs / SUP AIP / TFR affecting this airport [VIEW]
Communications frequencies: [VIEW]

Runways:

RWY identifierQFULength (ft)Width (ft)SurfaceLDA (ft)
15158°14993151ASP
33338°14993151ASP

Airport contact information

Address: Doha Qatar

Satellite view of OTBD